This is the latest recevied weather packets stored in our database for station/object K7FRY. If no packets are shown the sender has not sent any weather packets the latest 10 day(s).
| Time | Temp. | Humidity | Pressure | Rain* | Wind** | Luminosity | Snow |
|---|---|---|---|---|---|---|---|
| 1777327593 | 26.67° C | 17% | 1012.4 hPa | 0 mm | - | 599 W/m² | - |
| 1777327290 | 27.22° C | 17% | 1012.6 hPa | 0 mm | - | 626 W/m² | - |
| 1777326987 | 27.22° C | 17% | 1012.6 hPa | 0 mm | - | 609 W/m² | - |
| 1777326685 | 26.67° C | 16% | 1012.8 hPa | 0 mm | - | 601 W/m² | - |
| 1777326381 | 26.67° C | 16% | 1012.9 hPa | 0 mm | - | 685 W/m² | - |
| 1777326079 | 27.22° C | 15% | 1012.8 hPa | 0 mm | - | 690 W/m² | - |
| 1777325777 | 26.67° C | 16% | 1012.9 hPa | 0 mm | - | 672 W/m² | - |
| 1777325475 | 26.67° C | 16% | 1013.1 hPa | 0 mm | - | 669 W/m² | - |
| 1777325172 | 26.67° C | 15% | 1012.8 hPa | 0 mm | - | 689 W/m² | - |
| 1777324869 | 26.67° C | 15% | 1013.1 hPa | 0 mm | - | 710 W/m² | - |
| 1777324567 | 27.22° C | 14% | 1012.9 hPa | 0 mm | - | 712 W/m² | - |
| 1777324263 | 26.67° C | 14% | 1013.3 hPa | 0 mm | - | 711 W/m² | - |
| 1777323961 | 26.11° C | 14% | 1013.1 hPa | 0 mm | - | 721 W/m² | - |
| 1777323658 | 26.11° C | 14% | 1013.2 hPa | 0 mm | - | 735 W/m² | - |
| 1777323355 | 26.67° C | 14% | 1013.3 hPa | 0 mm | - | 741 W/m² | - |
| 1777323053 | 26.67° C | 14% | 1013.1 hPa | 0 mm | - | 759 W/m² | - |
| 1777322751 | 26.67° C | 15% | 1013.2 hPa | 0 mm | - | 762 W/m² | - |
| 1777322449 | 26.67° C | 14% | 1013.5 hPa | 0 mm | - | 770 W/m² | - |
| 1777322145 | 26.67° C | 16% | 1013.5 hPa | 0 mm | - | 777 W/m² | - |
| 1777321842 | 25.56° C | 23% | 1013.5 hPa | 0 mm | - | 778 W/m² | - |
| 1777321539 | 25.56° C | 22% | 1013.5 hPa | 0 mm | - | 763 W/m² | - |
| 1777321236 | 25.56° C | 23% | 1013.7 hPa | 0 mm | - | 742 W/m² | - |
| 1777320933 | 24.44° C | 24% | 1013.8 hPa | 0 mm | - | 753 W/m² | - |
| 1777320631 | 25° C | 24% | 1013.9 hPa | 0 mm | - | 759 W/m² | - |
| 1777320328 | 25° C | 24% | 1013.8 hPa | 0 mm | - | 774 W/m² | - |
* Rain latest hour (hover to see other rain measurements)
** Current wind speed in m/s (hover to see current wind gust speed)